Beaufort, NC

12:18 PM EDT on October 14, 2019 (GMT -0400)
Smith

Weather History for KMRH - May, 2019

Change the Weather History Date:

Thursday, May 23, 2019

  Actual Average Record
Temperature  
Mean Temperature 71 °F -  
Max Temperature 80 °F 79 °F 89 °F (1965)
Min Temperature 62 °F 62 °F 46 °F (1993)
Cooling Degree Days 6    
Growing Degree Days 21 (Base 50)    
Moisture  
Dew Point 63 °F    
Average Humidity 70    
Maximum Humidity 87    
Minimum Humidity 58    
Precipitation  
Precipitation 0.00 in - - ()
Sea Level Pressure  
Sea Level Pressure 30.22 in    
Wind  
Wind Speed 7 mph (South)    
Max Wind Speed 17 mph    
Max Gust Speed 21 mph    
Visibility 10 miles    
Events      
Averages and records for this station are not official NWS values.
T = Trace of Precipitation, MM = Missing Value Source: NWS Daily Summary

Daily Weather History Graph

Daily Weather History Graph

Search for Another Location

Airport or City:

Astronomy

May. 23, 2019 Rise Set
Actual Time 5:58 AM EDT 8:08 PM EDT
Civil Twilight 5:30 AM EDT 8:37 PM EDT
Nautical Twilight 4:55 AM EDT 9:12 PM EDT
Astronomical Twilight 4:17 AM EDT 9:49 PM EDT
Moon No Moon Rise 10:00 AM EDT (5/23)
Length of Visible Light 15h 07m
Length of Day
14h 09m
Waning Gibbous, 77% of the Moon is Illuminated
May 23
Waning Gibbous
May 26
Last Quarter
Jun 3
New
Jun 10
First Quarter
Jun 17
Full

Hourly Weather History & Observations

Time (EDT) Temp. Heat Index Dew Point Humidity Pressure Visibility Wind Dir Wind Speed Gust Speed Precip Events Conditions
12:58 AM 69.1 °F - 57.0 °F 65% 30.25 in 10.0 mi East 4.6 mph - N/A   Clear
1:58 AM 69.1 °F - 57.9 °F 68% 30.25 in 10.0 mi East 4.6 mph - N/A   Clear
2:58 AM 69.1 °F - 60.1 °F 73% 30.24 in 10.0 mi Calm Calm - N/A   Clear
3:58 AM 64.9 °F - 57.9 °F 78% 30.24 in 10.0 mi NE 3.5 mph - N/A   Clear
4:58 AM 62.1 °F - 57.0 °F 84% 30.24 in 10.0 mi Calm Calm - N/A   Clear
5:58 AM 62.1 °F - 57.9 °F 86% 30.25 in 10.0 mi Calm Calm - N/A   Clear
6:58 AM 66.0 °F - 62.1 °F 87% 30.28 in 10.0 mi Calm Calm - N/A   Clear
7:58 AM 73.9 °F - 64.9 °F 73% 30.28 in 10.0 mi ENE 4.6 mph - N/A   Scattered Clouds
8:58 AM 75.9 °F - 64.0 °F 67% 30.29 in 10.0 mi SSE 6.9 mph - N/A   Clear
9:58 AM 77.0 °F - 62.1 °F 60% 30.30 in 10.0 mi SSW 9.2 mph - N/A   Clear
10:58 AM 78.1 °F - 63.0 °F 60% 30.29 in 10.0 mi South 6.9 mph - N/A   Clear
11:58 AM 79.0 °F - 63.0 °F 58% 30.30 in 10.0 mi SSW 9.2 mph - N/A   Clear
12:58 PM 79.0 °F - 64.0 °F 60% 30.27 in 10.0 mi South 11.5 mph - N/A   Mostly Cloudy
1:58 PM 78.1 °F - 63.0 °F 60% 30.25 in 10.0 mi SSW 11.5 mph - N/A   Overcast
2:58 PM 80.1 °F 81.7 °F 64.0 °F 58% 30.22 in 10.0 mi SSW 15.0 mph - N/A   Clear
3:58 PM 78.1 °F - 64.0 °F 62% 30.20 in 10.0 mi South 15.0 mph - N/A   Mostly Cloudy
4:58 PM 79.0 °F - 64.9 °F 62% 30.18 in 10.0 mi SSW 16.1 mph - N/A   Partly Cloudy
5:58 PM 78.1 °F - 64.9 °F 64% 30.17 in 10.0 mi SSW 15.0 mph - N/A   Clear
6:58 PM 77.0 °F - 66.0 °F 69% 30.15 in 10.0 mi SSW 13.8 mph - N/A   Clear
7:58 PM 75.9 °F - 66.0 °F 71% 30.15 in 10.0 mi SSW 15.0 mph - N/A   Clear
8:58 PM 75.9 °F - 66.9 °F 74% 30.14 in 10.0 mi SSW 15.0 mph - N/A   Clear
9:58 PM 75.0 °F - 66.9 °F 76% 30.14 in 10.0 mi SW 15.0 mph - N/A   Clear
10:58 PM 75.0 °F - 68.0 °F 79% 30.14 in 10.0 mi SW 17.3 mph - N/A   Clear
11:58 PM 75.0 °F - 68.0 °F 79% 30.14 in 10.0 mi SW 13.8 mph 20.7 mph N/A   Clear